{"data":{"norad_id":59386,"intl_designator":"2024-062N","name":"STARLINK-31688","alt_names":[],"object_type":"PAYLOAD","status":"ACTIVE","operator":null,"country":"US","launch_date":"2024-04-02","launch_site_code":"AFWTR","launch_vehicle":null,"mission":null,"orbit_class":"UNKNOWN","rcs_meters":null,"size_class":null,"mass_kg":null,"dimensions":null,"purposes":["comms"],"wikipedia_slug":null,"has_3d_model":false,"image_url":null,"decayed_at":null,"tle_current":{"epoch":"2026-05-25T01:27:47.965248Z","epoch_age_seconds":69841,"freshness":"FRESH","line1":"1 59386U 24062N   26145.06097182  .00000602  00000+0  28934-4 0  9993","line2":"2 59386  53.1595 263.1034 0000982  71.3747 288.7362 15.34396205121297","mean_motion":15.34396205,"eccentricity":9.82e-5,"inclination_deg":53.1595,"raan_deg":263.1034,"arg_perigee_deg":71.3747,"mean_anomaly_deg":288.7362,"bstar":2.8934e-5,"rev_number":12129,"period_min":93.847990193641,"perigee_km":462.04274815087,"apogee_km":463.38629138935,"semimajor_km":6840.8515197701,"source":"CELESTRAK","updated_at":"2026-05-25T13:38:18.934439Z"}}}